Weather History for Silver City, NM

Change the Weather History Date:

Thursday, August 22, 2013

  Actual Average (KDMN) Record (KDMN)
Temperature  
Mean Temperature 70 °F 78 °F  
Max Temperature 86 °F 91 °F 102 °F (1948)
Min Temperature 55 °F 64 °F 55 °F (1968)
Cooling Degree Days 6    
Growing Degree Days 20 (Base 50)    
Moisture  
Dew Point 43 °F    
Average Humidity 37    
Maximum Humidity 67    
Minimum Humidity 19    
Precipitation  
Precipitation 0.00 in 0.06 in 0.83 in (1951)
Month to date precipitation 1.85  
Year to date precipitation 7.15  
Sea Level Pressure  
Sea Level Pressure 30.21 in    
Wind  
Wind Speed 8 mph (East)    
Max Wind Speed 14 mph    
Max Gust Speed 18 mph    
Visibility 10 miles    
Events      
T = Trace of Precipitation, MM = Missing Value Source: NWS Daily Summary

Daily Weather History Graph

Daily Weather History Graph

Search for Another Location

Airport:

Trip Planner

Search our weather history database for the weather conditions in past years. The results will help you decide how hot, cold, wet, or windy it might be!

Date:

Astronomy

Aug. 22, 2013 Rise Set
Actual Time 6:41 AM MDT 7:49 PM MDT
Civil Twilight 6:15 AM MDT 8:14 PM MDT
Nautical Twilight 5:45 AM MDT 8:44 PM MDT
Astronomical Twilight 5:13 AM MDT 9:16 PM MDT
Moon 8:46 PM MDT (8/22) 8:23 AM MDT (8/22)
Length of Visible Light 13h 59m
Length of Day
13h 08m
Waning Gibbous, 96% of the Moon is Illuminated
Aug 22
Waning Gibbous
Aug 28
Last Quarter
Sep 5
New
Sep 12
First Quarter
Sep 19
Full

Hourly Weather History & Observations

Time (MDT) Temp. Dew Point Humidity Pressure Visibility Wind Dir Wind Speed Gust Speed Precip Events Conditions
12:15 AM 66.2 °F 51.8 °F 60% 30.23 in 10.0 mi North 9.2 mph - N/A   Partly Cloudy
12:35 AM 68.0 °F 53.6 °F 60% 30.23 in 10.0 mi North 10.4 mph - N/A   Clear
12:55 AM 68.0 °F 53.6 °F 60% 30.24 in 10.0 mi Calm Calm - N/A   Clear
1:15 AM 66.2 °F 51.8 °F 60% 30.24 in 10.0 mi WNW 8.1 mph - N/A   Clear
1:35 AM 66.2 °F 50.0 °F 56% 30.24 in 10.0 mi North 6.9 mph - N/A   Clear
1:55 AM 64.4 °F 50.0 °F 59% 30.24 in 10.0 mi NE 4.6 mph - N/A   Clear
2:15 AM 66.2 °F 46.4 °F 49% 30.23 in 10.0 mi ESE 4.6 mph - N/A   Clear
2:35 AM 68.0 °F 44.6 °F 43% 30.23 in 10.0 mi East 4.6 mph - N/A   Clear
2:55 AM 68.0 °F 44.6 °F 43% 30.23 in 10.0 mi East 10.4 mph - N/A   Clear
3:15 AM 68.0 °F 42.8 °F 40% 30.23 in 10.0 mi East 11.5 mph - N/A   Clear
3:35 AM 64.4 °F 44.6 °F 49% 30.23 in 10.0 mi ENE 8.1 mph - N/A   Clear
3:55 AM 64.4 °F 46.4 °F 52% 30.23 in 10.0 mi ENE 8.1 mph - N/A   Clear
4:15 AM 62.6 °F 44.6 °F 52% 30.22 in 10.0 mi NE 10.4 mph - N/A   Clear
4:35 AM 64.4 °F 41.0 °F 42% 30.22 in 10.0 mi NNE 9.2 mph - N/A   Clear
4:55 AM 60.8 °F 42.8 °F 52% 30.22 in 10.0 mi North 4.6 mph - N/A   Clear
5:15 AM 57.2 °F 41.0 °F 55% 30.22 in 10.0 mi North 10.4 mph - N/A   Clear
5:35 AM 57.2 °F 44.6 °F 63% 30.22 in 10.0 mi NNW 5.8 mph - N/A   Clear
5:55 AM 57.2 °F 42.8 °F 59% 30.23 in 10.0 mi NW 6.9 mph - N/A   Clear
6:15 AM 55.4 °F 44.6 °F 67% 30.22 in 10.0 mi North 6.9 mph - N/A   Clear
6:35 AM 55.4 °F 42.8 °F 63% 30.23 in 10.0 mi NNE 8.1 mph - N/A   Clear
6:55 AM 59.0 °F 41.0 °F 51% 30.23 in 10.0 mi NNE 9.2 mph - N/A   Clear
7:15 AM 59.0 °F 41.0 °F 51% 30.24 in 10.0 mi North 8.1 mph - N/A   Clear
7:35 AM 60.8 °F 44.6 °F 55% 30.24 in 10.0 mi NNW 4.6 mph - N/A   Clear
7:55 AM 64.4 °F 44.6 °F 49% 30.25 in 10.0 mi North 6.9 mph - N/A   Clear
8:15 AM 66.2 °F 44.6 °F 46% 30.25 in 10.0 mi North 5.8 mph - N/A   Clear
8:35 AM 69.8 °F 44.6 °F 40% 30.26 in 10.0 mi Calm Calm - N/A   Clear
8:55 AM 71.6 °F 44.6 °F 38% 30.27 in 10.0 mi Calm Calm - N/A   Partly Cloudy
9:15 AM 75.2 °F 41.0 °F 29% 30.27 in 10.0 mi East 6.9 mph - N/A   Scattered Clouds
9:35 AM 75.2 °F 41.0 °F 29% 30.27 in 10.0 mi East 5.8 mph - N/A   Mostly Cloudy
9:55 AM 77.0 °F 41.0 °F 28% 30.27 in 10.0 mi ESE 8.1 mph - N/A   Mostly Cloudy
10:15 AM 77.0 °F 41.0 °F 28% 30.28 in 10.0 mi ESE 5.8 mph - N/A   Partly Cloudy
10:35 AM 77.0 °F 41.0 °F 28% 30.28 in 10.0 mi SE 8.1 mph - N/A   Partly Cloudy
10:55 AM 78.8 °F 42.8 °F 28% 30.28 in 10.0 mi SE 10.4 mph - N/A   Partly Cloudy
11:15 AM 80.6 °F 44.6 °F 28% 30.29 in 10.0 mi SE 11.5 mph - N/A   Scattered Clouds
11:35 AM 80.6 °F 44.6 °F 28% 30.28 in 10.0 mi SE 11.5 mph - N/A   Partly Cloudy
11:55 AM 82.4 °F 42.8 °F 25% 30.28 in 10.0 mi SE 11.5 mph 16.1 mph N/A   Partly Cloudy
12:15 PM 82.4 °F 41.0 °F 23% 30.27 in 10.0 mi SE 11.5 mph - N/A   Clear
12:35 PM 82.4 °F 41.0 °F 23% 30.27 in 10.0 mi SSE 8.1 mph 18.4 mph N/A   Partly Cloudy
12:55 PM 82.4 °F 41.0 °F 23% 30.26 in 10.0 mi SE 9.2 mph - N/A   Partly Cloudy
1:15 PM 82.4 °F 41.0 °F 23% 30.25 in 10.0 mi South 10.4 mph 16.1 mph N/A   Clear
1:35 PM 84.2 °F 41.0 °F 22% 30.25 in 10.0 mi SE 10.4 mph - N/A   Clear
1:55 PM 84.2 °F 41.0 °F 22% 30.23 in 10.0 mi ESE 11.5 mph 16.1 mph N/A   Clear
2:15 PM 84.2 °F 39.2 °F 20% 30.23 in 10.0 mi SE 8.1 mph - N/A   Clear
2:35 PM 84.2 °F 39.2 °F 20% 30.21 in 10.0 mi South 10.4 mph - N/A   Clear
2:55 PM 86.0 °F 41.0 °F 20% 30.20 in 10.0 mi SE 5.8 mph - N/A   Clear
3:15 PM 86.0 °F 41.0 °F 20% 30.20 in 10.0 mi SSE 9.2 mph 16.1 mph N/A   Clear
3:35 PM 86.0 °F 39.2 °F 19% 30.18 in 10.0 mi SE 11.5 mph 16.1 mph N/A   Clear
3:55 PM 86.0 °F 41.0 °F 20% 30.17 in 10.0 mi ESE 13.8 mph 18.4 mph N/A   Clear
4:15 PM 86.0 °F 39.2 °F 19% 30.16 in 10.0 mi SSE 10.4 mph 17.3 mph N/A   Clear
4:35 PM 86.0 °F 39.2 °F 19% 30.16 in 10.0 mi SE 12.7 mph - N/A   Clear
4:55 PM 84.2 °F 39.2 °F 20% 30.15 in 10.0 mi SE 6.9 mph 16.1 mph N/A   Clear
5:15 PM 86.0 °F 41.0 °F 20% 30.14 in 10.0 mi SE 11.5 mph 18.4 mph N/A   Clear
5:35 PM 86.0 °F 41.0 °F 20% 30.13 in 10.0 mi East 8.1 mph - N/A   Clear
5:55 PM 86.0 °F 41.0 °F 20% 30.13 in 10.0 mi ESE 10.4 mph 18.4 mph N/A   Clear
6:15 PM 86.0 °F 41.0 °F 20% 30.13 in 10.0 mi SE 12.7 mph 17.3 mph N/A   Clear
6:35 PM 84.2 °F 41.0 °F 22% 30.12 in 10.0 mi SE 11.5 mph - N/A   Clear
6:55 PM 84.2 °F 41.0 °F 22% 30.12 in 10.0 mi SSE 6.9 mph - N/A   Clear
7:15 PM 82.4 °F 42.8 °F 25% 30.13 in 10.0 mi SE 12.7 mph - N/A   Clear
7:35 PM 80.6 °F 42.8 °F 26% 30.13 in 10.0 mi SE 9.2 mph - N/A   Clear
7:55 PM 78.8 °F 44.6 °F 30% 30.14 in 10.0 mi SE 8.1 mph - N/A   Clear
8:15 PM 77.0 °F 44.6 °F 32% 30.15 in 10.0 mi SE 8.1 mph - N/A   Clear
8:35 PM 75.2 °F 46.4 °F 36% 30.16 in 10.0 mi SE 5.8 mph - N/A   Clear
8:55 PM 75.2 °F 46.4 °F 36% 30.17 in 10.0 mi SE 5.8 mph - N/A   Clear
9:15 PM 75.2 °F 44.6 °F 34% 30.18 in 10.0 mi ESE 4.6 mph - N/A   Clear
9:35 PM 73.4 °F 46.4 °F 38% 30.19 in 10.0 mi East 3.5 mph - N/A   Clear
9:55 PM 71.6 °F 46.4 °F 41% 30.19 in 10.0 mi East 3.5 mph - N/A   Clear
10:15 PM 73.4 °F 44.6 °F 36% 30.19 in 10.0 mi Calm Calm - N/A   Clear
10:55 PM 71.6 °F 44.6 °F 38% 30.20 in 10.0 mi Calm Calm - N/A   Scattered Clouds
11:15 PM 68.0 °F 44.6 °F 43% 30.20 in 10.0 mi Calm Calm - N/A   Partly Cloudy
11:35 PM 66.2 °F 44.6 °F 46% 30.20 in 10.0 mi ENE 3.5 mph - N/A   Clear
11:55 PM 66.2 °F 42.8 °F 43% 30.19 in 10.0 mi ENE 4.6 mph - N/A   Clear